Location: Clatteringshaws Loch
(55.0508°N, 4.2860°W)
Time: 22:59:06
(UTC+00:00)

ALOS - Visible Passes

Search period start: 27 January 2015 00:00
Search period end: 06 February 2015 00:00
Orbit: 687 x 689 km, 98.0° (Epoch: 27 January)

Date Brightness Start Highest point End Pass type
(mag) Time Alt. Az. Time Alt. Az. Time Alt. Az.
27 Jan 4.3 19:55:53 18° N 19:55:53 18° N 19:57:09 10° N visible
27 Jan 5.3 21:34:27 11° NNW 21:34:27 11° NNW 21:34:35 10° NNW visible
28 Jan 4.2 18:55:52 14° NNE 18:55:52 14° NNE 18:57:06 10° NNE visible
28 Jan 4.5 20:34:26 18° NNW 20:34:26 18° NNW 20:35:35 10° NNW visible
29 Jan 4.1 19:34:25 19° NNE 19:34:25 19° NNE 19:35:59 10° N visible
29 Jan 4.9 21:12:59 15° NNW 21:12:59 15° NNW 21:13:46 10° NNW visible
30 Jan 4.3 18:34:23 12° NNE 18:34:23 12° NNE 18:35:30 10° NNE visible
30 Jan 4.2 20:12:58 21° N 20:12:58 21° N 20:14:32 10° N visible
30 Jan 5.4 21:51:32 10° NW 21:51:32 10° NW 21:51:35 10° NW visible
31 Jan 4.0 19:12:56 18° NNE 19:12:56 18° NNE 19:14:43 10° N visible
31 Jan 4.5 20:51:30 19° NNW 20:51:30 19° NNW 20:52:51 10° NNW visible
01 Feb 3.9 19:51:28 23° N 19:51:28 23° N 19:53:25 10° N visible
01 Feb 5.0 21:30:03 15° NW 21:30:03 15° NW 21:30:54 10° NNW visible
02 Feb 4.0 18:51:27 16° NE 18:51:27 16° NE 18:53:18 10° NNE visible
02 Feb 4.1 20:30:01 24° NNW 20:30:01 24° NNW 20:31:52 10° NNW visible
03 Feb 3.8 19:29:59 22° NNE 19:29:59 22° NNE 19:32:13 10° N visible
03 Feb 4.6 21:08:33 20° NNW 21:08:33 20° NNW 21:10:04 10° NNW visible
04 Feb 4.2 18:29:56 13° NE 18:29:56 13° NE 18:31:37 10° NNE visible
04 Feb 3.7 20:08:31 27° N 20:08:31 27° N 20:10:47 10° N visible
04 Feb 5.1 21:47:05 14° NW 21:47:05 14° NW 21:47:55 10° NW visible
05 Feb 3.8 19:08:28 20° NE 19:08:28 20° NE 19:10:55 10° N visible
05 Feb 4.1 20:47:02 26° NNW 20:47:02 26° NNW 20:49:06 10° NNW visible
